Torna al catalogo

STARLINK-35544

AttivoComunicazioniVLEO
NORAD 65922·PAYLOAD·🇺🇸 United States

Lanciato Oct 8, 2025 da Vandenberg Space Force Base

Loading…

Prossimi Passaggi (prossime 24 ore)

TLE

AggiornatoSource: CelesTrak SupGP

Epoca: Sep 15, 2026, 03:16 UTC

1 65922C 25225N   26258.13659722  .00072498  00000+0  21412-2 0  2587
2 65922  53.1600   2.4251 0001175  74.0331 144.8631 15.34365320    17

Traccia STARLINK-35544 in tempo reale con AllMySat

Download on the App Store